Location: Auckland
(36.8670°S, 174.7670°E)
Time: 21:28:04
(UTC+12:00)

A-11 Canister half - Pass Details

Date: 30 July 2019
Orbit: 1526 x 1683 km, 47.3° (Epoch: 21 August)

Event Time Altitude Azimuth Distance (km) Brightness Sun altitude
Rises 04:06:50 0° 351° (N) 4,671 - -39.0°
Exits shadow 04:08:36 - 356° (N) 4,196 11.2 -38.6°
Reaches altitude 10° 04:10:37 10° 4° (N) 3,688 11.0 -38.2°
Maximum altitude 04:17:35 24° 53° (NE) 2,746 10.6 -36.8°
Drops below altitude 10° 04:24:34 10° 102° (ESE) 3,725 11.8 -35.4°
Sets 04:28:23 0° 115° (ESE) 4,729 12.4 -34.7°
